This demonstration page uses our WeatherBlox Daily Observations layout. Learn more.

Left ArrowRight Arrow

41.55636, -103.73856

Hourly Observations for December 19, 2020

Temp ( °F °C ) Dew Point ( °F °C ) Humidity (%) Winds ( mph kmh ) Pressure ( in mb ) Visibility ( mi km ) Precip ( " mm )
12:56 am 00:56 Clear 25 -3.8 17 -8.6 70 70 W 10 17 30.19 1022 10 16 0.00 0.00
1:56 am 01:56 Clear 25 -3.8 17 -8.3 71 71 W 10 17 30.16 1022 10 16 0.00 0.00
2:56 am 02:56 Clear 25 -4 15 -9.5 66 66 W 7 11 30.15 1021 10 16 0.00 0.00
3:56 am 03:56 Clear 23 -4.9 14 -10 68 68 W 6 9 30.15 1021 10 16 0.00 0.00
4:56 am 04:56 Clear 21 -6.1 12 -10.9 69 69 W 10 17 30.15 1021 10 16 0.00 0.00
5:56 am 05:56 Clear 25 -3.9 13 -10.7 60 60 WSW 7 11 30.13 1020 10 16 0.00 0.00
6:56 am 06:56 Clear 20 -6.4 13 -10.6 72 72 SW 13 20 30.14 1021 10 16 0.00 0.00
7:56 am 07:56 Sunny 22 -5.3 15 -9.7 72 72 SW 13 20 30.11 1020 10 16 0.00 0.00
8:56 am 08:56 Sunny 31 -0.4 18 -7.7 58 58 W 14 22 30.10 1019 10 16 0.00 0.00
9:56 am 09:56 Sunny 39 3.7 19 -7.2 45 45 W 22 35 30.07 1018 10 16 0.00 0.00
10:56 am 10:56 Sunny 43 5.9 20 -6.6 41 41 WNW 25 41 30.03 1017 10 16 0.00 0.00
11:56 am 11:56 Sunny 43 6 20 -6.9 39 39 NW 23 37 30.01 1016 10 16 0.00 0.00
12:56 pm 12:56 Partly Cloudy 42 5.3 19 -7.4 40 40 WNW 25 41 30.00 1016 10 16 0.00 0.00
1:56 pm 13:56 Sunny 41 5.1 21 -6.1 45 45 WNW 25 41 30.00 1016 10 16 0.00 0.00
2:56 pm 14:56 Mostly Cloudy 42 5.6 18 -7.7 38 38 WNW 37 59 30.02 1017 10 16 0.00 0.00
3:56 pm 15:56 Partly Cloudy 40 4.7 19 -7.4 42 42 WNW 30 48 30.04 1017 10 16 0.00 0.00
4:56 pm 16:56 Mostly Clear 38 3.2 20 -6.9 48 48 WNW 24 39 30.10 1019 10 16 0.00 0.00
5:57 pm 17:57 Mostly Cloudy 36 2.1 21 -6.3 54 54 WNW 17 28 30.11 1020 10 16 0.00 0.00
6:56 pm 18:56 Mostly Cloudy 36 2.2 20 -6.5 53 53 WNW 14 22 30.16 1021 10 16 0.00 0.00
7:56 pm 19:56 Mostly Clear 32 0.2 20 -6.7 60 60 NW 14 22 30.19 1022 10 16 0.00 0.00
8:56 pm 20:56 Mostly Cloudy 35 1.7 20 -6.5 55 55 NW 22 35 30.15 1021 10 16 0.00 0.00
9:57 pm 21:57 Mostly Cloudy 35 1.7 20 -6.4 55 55 WNW 16 26 30.15 1021 10 16 0.00 0.00
10:57 pm 22:57 Mostly Cloudy 34 1.3 21 -6.3 57 57 W 15 24 30.18 1022 10 16 0.00 0.00
11:57 pm 23:57 Mostly Cloudy 32 0 20 -6.6 62 62 W 13 20 30.18 1022 10 16 0.00 0.00

Powered by AerisWeather